Regional Weather Roundup
Issued by NWS

Home | Current Version | Previous Version | Graphics & Text | Print | Product List | Glossary On
Versions: 1 2 3 4 5 6 7 8 9 10 11 12 13 14 15 16 17 18 19 20 21 22 23 24 25 26 27 28 29 30 31 32 33 34 35 36 37 38 39 40 41 42 43 44 45 46 47 48 49 50
000
ASUS43 KLSX 301459
RWRMO

WEATHER SUMMARY FOR MISSOURI
NATIONAL WEATHER SERVICE SPRINGFIELD MO
1000 AM CDT SAT AUG 30 2014

NOTE: "FAIR" INDICATES FEW OR NO CLOUDS BELOW 12,000 FEET WITH NO
       SIGNIFICANT WEATHER AND/OR OBSTRUCTIONS TO VISIBILITY.
       CURRENT SKY AND/OR WEATHER CONDITIONS ARE NOT AVAILABLE FOR
       CHILLICOTHE AND FARMINGTON.

MOZ001>031-035>038-043-044-053-054-301600-
...NORTHERN AND WESTERN MISSOURI...

CITY           SKY/WX    TMP DP  RH WIND       PRES   REMARKS
KANSAS CTY INT MOSUNNY   75  69  81 NW6       29.94S
KANSAS C DTWN  SUNNY     77  69  76 N6        29.93R
LEE`S SUMMIT   SUNNY     76  69  79 W6        29.95R
ST JOSEPH      PTSUNNY   76  69  79 N3        29.94R
KIRKSVILLE     PTSUNNY   76  69  79 W7        29.92S

$$
MOZ066>068-077>081-088>096-101>105-301600-
...SOUTHWEST MISSOURI...

CITY           SKY/WX    TMP DP  RH WIND       PRES   REMARKS
SPRINGFIELD    MOSUNNY   78  68  71 S9        29.97S
JOPLIN         MOSUNNY   81  70  69 SW13      29.97S

$$
MOZ032>034-039>042-045>050-055>058-069>072-301600-
...CENTRAL MISSOURI...

CITY           SKY/WX    TMP DP  RH WIND       PRES   REMARKS
COLUMBIA       MOSUNNY   78  72  81 SW12      29.95R
JEFFERSON CITY MOSUNNY   77  69  76 SW7       29.94S
ROLLA          PTSUNNY   76  68  76 SW12      29.97R
SEDALIA        SUNNY     79  70  74 W12       29.94S
OSAGE BEACH    PTSUNNY   79  68  69 SW8       29.96R

$$
MOZ051-052-059>065-301600-
...EAST CENTRAL MISSOURI...

CITY           SKY/WX    TMP DP  RH WIND       PRES   REMARKS
ST LOUIS INTL  PTSUNNY   80  70  71 S10       29.97R
SPIRIT OF STL  PTSUNNY   76  70  82 SW8       29.95S
ST CHARLES     PTSUNNY   78  70  76 SW8       29.94S

$$
MOZ072>076-082>087-097>100-106>115-301600-
...SOUTH CENTRAL AND SOUTHEAST MISSOURI...

CITY           SKY/WX    TMP DP  RH WIND       PRES   REMARKS
CAPE GIRARDEAU PTSUNNY   75  72  90 SE5       30.01S
FARMINGTON     CLOUDY    72  70  94 S8        30.04S
POPLAR BLUFF   CLOUDY    78  71  79 SW6       30.00R
WEST PLAINS    CLOUDY    74  69  85 S5        30.03S

$$


USA.gov is the U.S. government's official web portal to all federal, state and local government web resources and services.